Weather History for KRDK - April, 2013

Change the Weather History Date:

Monday, April 1, 2013

  Actual Average (KOMA) Record (KOMA)
Temperature  
Mean Temperature 30 °F 46 °F  
Max Temperature 42 °F 58 °F 90 °F (2012)
Min Temperature 19 °F 34 °F 6 °F (1881)
Degree Days  
Heating Degree Days 34 19  
Month to date heating degree days 19  
Since 1 July heating degree days 5608  
Cooling Degree Days 0 0  
Month to date cooling degree days 0  
Year to date cooling degree days 1  
Moisture  
Dew Point 19 °F    
Average Humidity 66    
Maximum Humidity 93    
Minimum Humidity 26    
Precipitation  
Precipitation 0.01 in 0.08 in 0.71 in (1873)
Month to date precipitation 0.08  
Year to date precipitation 3.64  
Snow  
Snow 0.00 in 0.10 in - ()
Month to date snowfall 0.1  
Since 1 July snowfall 25.5  
Snow Depth -    
Sea Level Pressure  
Sea Level Pressure 30.27 in    
Wind  
Wind Speed 10 mph (North)    
Max Wind Speed 17 mph    
Max Gust Speed 23 mph    
Visibility 10 miles    
Events Snow    
T = Trace of Precipitation, MM = Missing Value Source: NWS Daily Summary

Daily Weather History Graph

Daily Weather History Graph

Search for Another Location

Airport or City:

Trip Planner

Search our weather history database for the weather conditions in past years. The results will help you decide how hot, cold, wet, or windy it might be!

Date:

Astronomy

Apr. 01, 2013 Rise Set
Actual Time 7:03 AM CDT 7:46 PM CDT
Civil Twilight 6:36 AM CDT 8:14 PM CDT
Nautical Twilight 6:03 AM CDT 8:47 PM CDT
Astronomical Twilight 5:29 AM CDT 9:21 PM CDT
Moon 12:57 AM CDT (4/1) 10:49 AM CDT (4/1)
Length of Visible Light 13h 37m
Length of Day
12h 42m
Waning Gibbous, 67% of the Moon is Illuminated
Apr 1
Waning Gibbous
Apr 2
Last Quarter
Apr 10
New
Apr 18
First Quarter
Apr 25
Full

Hourly Weather History & Observations

Time (CDT) Temp. Windchill Dew Point Humidity Pressure Visibility Wind Dir Wind Speed Gust Speed Precip Events Conditions
12:15 AM 33.8 °F 24.3 °F 30.2 °F 87% 30.13 in 3.0 mi NNE 13.8 mph 21.9 mph 0.01 in Snow Light Snow
12:35 AM 32.0 °F 22.5 °F 28.4 °F 87% 30.14 in 3.0 mi North 12.7 mph 19.6 mph 0.01 in Snow Light Snow
12:55 AM 32.0 °F 21.6 °F 28.4 °F 87% 30.15 in 2.0 mi North 15.0 mph - 0.01 in Snow Light Snow
1:15 AM 30.2 °F 20.2 °F 28.4 °F 93% 30.16 in 10.0 mi North 12.7 mph 19.6 mph N/A   Overcast
1:35 AM 30.2 °F 21.3 °F 26.6 °F 86% 30.17 in 10.0 mi North 10.4 mph - N/A   Scattered Clouds
1:55 AM 30.2 °F 21.9 °F 26.6 °F 86% 30.17 in 10.0 mi North 9.2 mph - N/A   Clear
2:15 AM 28.4 °F 18.5 °F 26.6 °F 93% 30.17 in 10.0 mi North 11.5 mph - N/A   Clear
2:35 AM 28.4 °F 18.5 °F 24.8 °F 86% 30.18 in 10.0 mi North 11.5 mph - N/A   Clear
2:55 AM 28.4 °F 19.7 °F 24.8 °F 86% 30.18 in 10.0 mi North 9.2 mph - N/A   Clear
3:15 AM 26.6 °F 17.5 °F 23.0 °F 86% 30.19 in 10.0 mi North 9.2 mph - N/A   Clear
3:35 AM 26.6 °F 17.5 °F 21.2 °F 80% 30.19 in 10.0 mi North 9.2 mph - N/A   Clear
3:55 AM 26.6 °F 16.2 °F 21.2 °F 80% 30.20 in 10.0 mi North 11.5 mph - N/A   Clear
4:15 AM 24.8 °F 16.1 °F 19.4 °F 80% 30.21 in 10.0 mi North 8.1 mph - N/A   Clear
4:35 AM 24.8 °F 16.1 °F 19.4 °F 80% 30.22 in 10.0 mi North 8.1 mph - N/A   Clear
4:55 AM 23.0 °F 14.7 °F 17.6 °F 80% 30.22 in 10.0 mi North 6.9 mph - N/A   Clear
5:15 AM 23.0 °F 13.1 °F 17.6 °F 80% 30.23 in 10.0 mi North 9.2 mph - N/A   Clear
5:35 AM 21.2 °F 11.7 °F 17.6 °F 86% 30.23 in 10.0 mi North 8.1 mph - N/A   Clear
6:15 AM 21.2 °F 10.1 °F 17.6 °F 86% 30.26 in 10.0 mi North 10.4 mph - N/A   Clear
6:35 AM 21.2 °F 10.9 °F 17.6 °F 86% 30.26 in 10.0 mi North 9.2 mph - N/A   Clear
7:15 AM 21.2 °F 13.6 °F 15.8 °F 80% 30.28 in 10.0 mi North 5.8 mph - N/A   Clear
7:35 AM 19.4 °F 12.8 °F 15.8 °F 86% 30.29 in 10.0 mi NNW 4.6 mph - N/A   Clear
8:15 AM 23.0 °F 15.8 °F 17.6 °F 80% 30.30 in 10.0 mi North 5.8 mph - N/A   Clear
8:35 AM 24.8 °F 16.1 °F 17.6 °F 74% 30.31 in 10.0 mi NNW 8.1 mph - N/A   Clear
8:55 AM 24.8 °F 16.9 °F 19.4 °F 80% 30.32 in 10.0 mi NW 6.9 mph - N/A   Clear
9:15 AM 24.8 °F 16.1 °F 19.4 °F 80% 30.32 in 10.0 mi NW 8.1 mph - N/A   Clear
9:35 AM 26.6 °F 17.5 °F 19.4 °F 74% 30.32 in 10.0 mi NNW 9.2 mph - N/A   Clear
9:55 AM 26.6 °F 16.2 °F 19.4 °F 74% 30.32 in 10.0 mi North 11.5 mph - N/A   Clear
10:15 AM 28.4 °F 19.1 °F 21.2 °F 74% 30.32 in 10.0 mi NNW 10.4 mph - N/A   Scattered Clouds
10:35 AM 28.4 °F 19.7 °F 21.2 °F 74% 30.33 in 10.0 mi NNW 9.2 mph - N/A   Mostly Cloudy
10:55 AM 28.4 °F 19.1 °F 21.2 °F 74% 30.33 in 10.0 mi NNW 10.4 mph - N/A   Scattered Clouds
11:15 AM 30.2 °F 20.2 °F 21.2 °F 69% 30.33 in 10.0 mi North 12.7 mph - N/A   Scattered Clouds
11:35 AM 30.2 °F 18.9 °F 24.8 °F 80% 30.33 in 10.0 mi North 16.1 mph 19.6 mph N/A   Scattered Clouds
11:55 AM 32.0 °F 22.1 °F 24.8 °F 75% 30.32 in 10.0 mi North 13.8 mph 23.0 mph N/A   Scattered Clouds
12:15 PM 33.8 °F 23.2 °F 23.0 °F 65% 30.33 in 10.0 mi North 17.3 mph - N/A   Scattered Clouds
12:35 PM 33.8 °F 23.9 °F 23.0 °F 65% 30.33 in 10.0 mi North 15.0 mph - N/A   Scattered Clouds
1:15 PM 35.6 °F 28.6 °F 21.2 °F 56% 30.32 in 10.0 mi NNW 9.2 mph 17.3 mph N/A   Scattered Clouds
1:35 PM 35.6 °F 25.9 °F 21.2 °F 56% 30.31 in 10.0 mi North 16.1 mph - N/A   Clear
1:55 PM 37.4 °F 28.5 °F 19.4 °F 48% 30.31 in 10.0 mi North 15.0 mph 21.9 mph N/A   Clear
2:15 PM 37.4 °F 29.8 °F 21.2 °F 52% 30.31 in 10.0 mi NNW 11.5 mph 18.4 mph N/A   Clear
2:35 PM 37.4 °F 30.8 °F 19.4 °F 48% 30.30 in 10.0 mi North 9.2 mph 18.4 mph N/A   Clear
3:15 PM 39.2 °F 33.0 °F 17.6 °F 42% 30.29 in 10.0 mi North 9.2 mph 17.3 mph N/A   Clear
3:35 PM 41.0 °F 34.7 °F 15.8 °F 36% 30.29 in 10.0 mi North 10.4 mph - N/A   Clear
3:55 PM 39.2 °F 33.6 °F 14.0 °F 36% 30.29 in 10.0 mi North 8.1 mph - N/A   Clear
4:15 PM 41.0 °F 34.7 °F 12.2 °F 31% 30.28 in 10.0 mi North 10.4 mph - N/A   Clear
4:35 PM 39.2 °F 33.6 °F 10.4 °F 31% 30.28 in 10.0 mi NNW 8.1 mph - N/A   Clear
4:55 PM 42.8 °F 37.5 °F 12.2 °F 29% 30.27 in 10.0 mi NNW 9.2 mph - N/A   Clear
5:15 PM 41.0 °F 34.3 °F 12.2 °F 31% 30.27 in 10.0 mi North 11.5 mph - N/A   Clear
5:35 PM 41.0 °F 34.7 °F 8.6 °F 26% 30.27 in 10.0 mi North 10.4 mph 16.1 mph N/A   Clear
6:15 PM 39.2 °F 33.0 °F 8.6 °F 28% 30.26 in 10.0 mi North 9.2 mph - N/A   Clear
6:35 PM 39.2 °F 33.6 °F 10.4 °F 31% 30.27 in 10.0 mi NNW 8.1 mph - N/A   Clear
6:55 PM 39.2 °F 34.2 °F 12.2 °F 33% 30.27 in 10.0 mi North 6.9 mph - N/A   Clear
7:15 PM 37.4 °F 31.4 °F 14.0 °F 38% 30.27 in 10.0 mi North 8.1 mph - N/A   Clear
7:35 PM 35.6 °F 29.9 °F 15.8 °F 44% 30.27 in 10.0 mi North 6.9 mph - N/A   Clear
7:55 PM 33.8 °F 28.6 °F 17.6 °F 52% 30.27 in 10.0 mi North 5.8 mph - N/A   Clear
8:15 PM 32.0 °F 26.4 °F 19.4 °F 60% 30.27 in 10.0 mi North 5.8 mph - N/A   Clear
8:35 PM 30.2 °F 25.4 °F 19.4 °F 64% 30.28 in 10.0 mi North 4.6 mph - N/A   Clear
8:55 PM 30.2 °F 25.4 °F 19.4 °F 64% 30.28 in 10.0 mi North 4.6 mph - N/A   Clear
9:15 PM 28.4 °F 24.6 °F 19.4 °F 69% 30.29 in 10.0 mi North 3.5 mph - N/A   Clear
9:35 PM 28.4 °F 24.6 °F 19.4 °F 69% 30.30 in 10.0 mi North 3.5 mph - N/A   Clear
9:55 PM 26.6 °F - 17.6 °F 69% 30.30 in 10.0 mi Calm Calm - N/A   Clear
10:15 PM 28.4 °F - 19.4 °F 69% 30.31 in 10.0 mi Calm Calm - N/A   Clear
10:35 PM 26.6 °F - 17.6 °F 69% 30.30 in 10.0 mi Calm Calm - N/A   Clear
10:55 PM 28.4 °F - 17.6 °F 64% 30.30 in 10.0 mi Calm Calm - N/A   Clear
11:15 PM 24.8 °F - 17.6 °F 74% 30.31 in 10.0 mi Calm Calm - N/A   Clear
11:35 PM 24.8 °F - 17.6 °F 74% 30.31 in 10.0 mi Calm Calm - N/A   Clear
11:55 PM 24.8 °F - 17.6 °F 74% 30.31 in 10.0 mi Calm Calm - N/A   Clear